Tracking 19219 objects as of 19-Jul-2018
HD Live streaming from Space Station
objects crossing your sky now

FENGYUN 1C DEB

Track FENGYUN 1C DEB now!
10-day predictions


NORAD ID: 36263
Int'l Code: 1999-025DWQ
Perigee: 784.4 km
Apogee: 857.1 km
Inclination: 99.0 °
Period: 101.2 minutes
Semi major axis: 7191 km
RCS: 0.0023 m2 (small)
Launch date: May 10, 1999
Source: People's Republic of China (PRC)
Launch site: Taiyaun Space Center, China (TSC)

Note: This is SATELLITE DEBRIS
aabbcc
Your satellite tracking list
Your tracking list is empty




NASA's NSSDC Master Catalog

Two Line Element Set (TLE):
1 36263U 99025DWQ 18197.24716870  .00000634  00000-0  29526-3 0  9996
2 36263  98.9511 308.1488 0050586 187.1532 172.8930 14.23479752494560
Source of the keplerian elements: AFSPC